• Currently

    Reported at Minneapolis, Minneapolis-St. Paul International Airport, MN
    9:53 AM CST MON MAY 29 2017
  • 59°F15°C
  • Overcast
    Overcast
  • Feels Like:59°F15°CDew Point:48°F9°CHumidity:68% Winds:NW 15 mph G 2124 kph G 34
    Pressure:29.8 in1009 hPaVisibility:10.00 miles16090.00 meters
Time Weather Temp Dew Point
Humidity Winds Visibility Pressure Precipitation
1 hr 24 hr
Thursday, May 25
23:53 23:53 Cloudy Cloudy 58°F14°C 45°F7°C 62% N 5 mphN 7 kph 10.0 miles16.1 km 29.71 in1006 hPa 0.00 in0.00 mm --
22:53 22:53 Cloudy Cloudy 58°F14°C 44°F7°C 60% ENE 5 mphENE 7 kph 10.0 miles16.1 km 29.71 in1006 hPa 0.00 in0.00 mm --
21:53 21:53 Cloudy Cloudy 59°F15°C 44°F7°C 58% E 7 mphE 11 kph 10.0 miles16.1 km 29.71 in1006 hPa 0.00 in0.00 mm --
20:53 20:53 Cloudy Cloudy 59°F15°C 44°F7°C 58% ENE 7 mphENE 11 kph 10.0 miles16.1 km 29.71 in1006 hPa 0.00 in0.00 mm --
19:53 19:53 Cloudy Cloudy 60°F16°C 44°F7°C 56% E 8 mphE 13 kph 10.0 miles16.1 km 29.71 in1006 hPa 0.00 in0.00 mm --
18:53 18:53 Cloudy Cloudy 61°F16°C 44°F7°C 54% ENE 10 mphENE 17 kph 10.0 miles16.1 km 29.71 in1006 hPa 0.00 in0.00 mm --
17:53 17:53 Mostly Cloudy Mostly Cloudy 61°F16°C 44°F7°C 54% NE 9 mphNE 15 kph 10.0 miles16.1 km 29.68 in1005 hPa 0.00 in0.00 mm --
16:53 16:53 Mostly Cloudy Mostly Cloudy 62°F17°C 44°F7°C 52% ENE 10 mphENE 17 kph 10.0 miles16.1 km 29.71 in1006 hPa 0.00 in0.00 mm --
15:53 15:53 Cloudy Cloudy 62°F17°C 44°F7°C 52% NNE 10 mphNNE 17 kph 10.0 miles16.1 km 29.71 in1006 hPa 0.00 in0.00 mm --
14:53 14:53 Cloudy Cloudy 60°F16°C 42°F6°C 52% NE 8 mphNE 13 kph 10.0 miles16.1 km 29.74 in1007 hPa 0.00 in0.00 mm --
13:53 13:53 Cloudy Cloudy 59°F15°C 43°F6°C 56% NNE 8 mphNNE 13 kph 10.0 miles16.1 km 29.74 in1007 hPa 0.00 in0.00 mm --
12:53 12:53 Cloudy Cloudy 59°F15°C 44°F7°C 58% NE 6 mphNE 9 kph 10.0 miles16.1 km 29.74 in1007 hPa 0.00 in0.00 mm --
12:09 12:09 Mostly Cloudy Mostly Cloudy 58°F14°C 44°F7°C 60% NNE 8 mphNNE 13 kph 10.0 miles16.1 km 29.74 in1007 hPa 0.00 in0.00 mm --
11:53 11:53 Mostly Cloudy Mostly Cloudy 58°F14°C 44°F7°C 60% NE 7 mphNE 11 kph 10.0 miles16.1 km 29.74 in1007 hPa 0.00 in0.00 mm --
11:35 11:35 Mostly Cloudy Mostly Cloudy 57°F14°C 45°F7°C 64% N 7 mphN 11 kph 10.0 miles16.1 km 29.74 in1007 hPa 0.00 in0.00 mm --
11:28 11:28 Mostly Cloudy Mostly Cloudy 56°F13°C 44°F7°C 65% NNW 7 mphNNW 11 kph 10.0 miles16.1 km 29.74 in1007 hPa 0.00 in0.00 mm --
10:53 10:53 Mostly Cloudy Mostly Cloudy 56°F13°C 45°F7°C 67% NNW 9 mphNNW 15 kph 10.0 miles16.1 km 29.77 in1008 hPa 0.00 in0.00 mm --
10:07 10:07 Cloudy Cloudy 52°F11°C 43°F6°C 72% NNE 8 mphNNE 13 kph 10.0 miles16.1 km 29.77 in1008 hPa 0.00 in0.00 mm --
09:53 09:53 Cloudy Cloudy 53°F12°C 44°F7°C 72% NNE 10 mphNNE 17 kph 10.0 miles16.1 km 29.77 in1008 hPa 0.00 in0.00 mm --
08:53 08:53 Cloudy Cloudy 50°F10°C 43°F6°C 77% NNE 9 mphNNE 15 kph 10.0 miles16.1 km 29.8 in1009 hPa 0.00 in0.00 mm --
08:34 08:34 Cloudy Cloudy 50°F10°C 43°F6°C 77% NNE 10 mphNNE 17 kph 10.0 miles16.1 km 29.8 in1009 hPa 0.00 in0.00 mm --
07:53 07:53 Cloudy Cloudy 49°F9°C 43°F6°C 80% NNE 12 mphNNE 19 kph 10.0 miles16.1 km 29.8 in1009 hPa 0.00 in0.00 mm --
06:53 06:53 Mostly Cloudy Mostly Cloudy 48°F9°C 43°F6°C 83% N 12 mphN 19 kph 10.0 miles16.1 km 29.77 in1008 hPa 0.00 in0.00 mm --
06:44 06:44 Mostly Cloudy Mostly Cloudy 48°F9°C 43°F6°C 83% N 9 mphN 15 kph 10.0 miles16.1 km 29.8 in1009 hPa 0.00 in0.00 mm --
05:53 05:53 Mostly Sunny Mostly Sunny 47°F8°C 42°F6°C 83% NNE 9 mphNNE 15 kph 10.0 miles16.1 km 29.77 in1008 hPa 0.00 in0.00 mm --
04:53 04:53 Mostly Clear Mostly Clear 47°F8°C 42°F6°C 83% NNE 9 mphNNE 15 kph 10.0 miles16.1 km 29.77 in1008 hPa 0.00 in0.00 mm --
03:53 03:53 Mostly Clear Mostly Clear 47°F8°C 42°F6°C 83% N 8 mphN 13 kph 10.0 miles16.1 km 29.8 in1009 hPa 0.00 in0.00 mm --
02:53 02:53 Mostly Clear Mostly Clear 48°F9°C 42°F6°C 80% NNE 7 mphNNE 11 kph 10.0 miles16.1 km 29.8 in1009 hPa 0.00 in0.00 mm --
01:53 01:53 Mostly Clear Mostly Clear 49°F9°C 43°F6°C 80% N 8 mphN 13 kph 10.0 miles16.1 km 29.8 in1009 hPa 0.00 in0.00 mm --
00:53 00:53 Mostly Clear Mostly Clear 51°F11°C 44°F7°C 77% N 10 mphN 17 kph 10.0 miles16.1 km 29.8 in1009 hPa 0.00 in0.00 mm --